Flag for U.S.A. Weather past 2 weeks in Chula Vista, California, U.S.A.

Now
66 °F

Clear.


Feels Like: 66 °F
Forecast: 64 / 74 °F
Wind: 3 mph from West

Location: Brown Field Municipal Airport

Current Time: Sep 3, 2015 at 9:33:31 PM

Latest Report: Sep 3, 2015 at 8:53 PM


Visibility: 10 mi

Pressure: 29.86 "Hg

Humidity: 73%

Dew point: 57 °F

Location of Chula VistaLocation

Historic Weather in Chula Vista — Graph

°F

Chula Vista temperature yesterday

Maximum temperature yesterday: 77 °F (at 11:53 AM)
Minimum temperature yesterday: 64 °F (at 11:53 PM)
Average temperature yesterday: 70 °F

Past Weeks' High & Low Weather Summary

 TemperatureHumidityPressure
High93 °F (Aug 28, 11:53 AM)100% (Aug 26, 4:53 AM)29.99 "Hg (Aug 26, 4:53 AM)
Low64 °F (Sep 2, 11:53 PM)24% (Aug 28, 4:53 PM)29.81 "Hg (Aug 28, 4:53 PM)
Average72 °F75%29.90 "Hg
* Reported Aug 19 7:53 PM — Sep 3 7:53 PM, Chula Vista, Weather by CustomWeather, © 2015

Note: Actual official high and low records may vary slightly from our data, if they occured in-between our weather recording intervals... More about our weather records

Advertising

Chula Vista weather history for previous 24 hours

 ConditionsComfort  
Time TempWeatherWind HumidityBarometerVisibility
7:53 PM
Thu, Sep 3
66 °FSunny.6 mph75%29.85 "Hg10 mi
6:53 PM68 °FSunny.7 mph68%29.84 "Hg10 mi
5:53 PM71 °FSunny.8 mph63%29.83 "Hg10 mi
4:53 PM73 °FSunny.8 mph57%29.84 "Hg10 mi
3:53 PM74 °FSunny.10 mph56%29.85 "Hg10 mi
2:53 PM75 °FSunny.9 mph54%29.85 "Hg10 mi
1:53 PM75 °FSunny.8 mph55%29.88 "Hg10 mi
12:53 PM76 °FSunny.9 mph54%29.89 "Hg10 mi
11:53 AM74 °FSunny.9 mph57%29.90 "Hg10 mi
10:53 AM74 °FSunny.9 mph57%29.92 "Hg10 mi
9:53 AM70 °FScattered clouds.No wind66%29.93 "Hg10 mi
8:53 AM69 °FOvercast.No wind70%29.93 "Hg10 mi
7:53 AM67 °FOvercast.3 mph76%29.93 "Hg10 mi
6:53 AM65 °FOvercast.3 mph81%29.92 "Hg10 mi
5:53 AM65 °FOvercast.No wind78%29.91 "Hg10 mi
4:53 AM64 °FOvercast.3 mph81%29.90 "Hg10 mi
3:53 AM64 °FOvercast.3 mph81%29.90 "Hg10 mi
2:53 AM64 °FOvercast.3 mph81%29.91 "Hg10 mi
1:53 AM64 °FOvercast.No wind81%29.92 "Hg10 mi
12:53 AM64 °FClear.No wind81%29.93 "Hg10 mi
11:53 PM
Wed, Sep 2
64 °FClear.3 mph81%29.93 "Hg10 mi
10:53 PM65 °FClear.3 mph78%29.94 "Hg10 mi
9:53 PM66 °FClear.5 mph78%29.93 "Hg10 mi
Weather by CustomWeather, © 2015

See weather overviewHow to use our weather pages